FW7166 Weather Reports


Display with metric or nautical units.
time (UTC)temp
F
wind
direction
speed
MPH
gust
MPH
rain 1hr
in
rain 24hr
in
rain mn
in
humidity
%
barometer
mb
20260503005533 55 169 0.0 14.0 0.00 0.00 0.00 74 1012.8
20260503005032 55 169 0.0 14.0 0.00 0.00 0.00 73 1012.6
20260503004531 55 169 0.0 14.0 0.00 0.00 0.00 72 1012.6
20260503004031 55 169 0.0 14.0 0.00 0.00 0.00 71 1012.6
20260503003530 55 169 0.0 14.0 0.00 0.00 0.00 71 1012.8
20260503003029 56 169 0.0 14.0 0.00 0.00 0.00 70 1012.9
20260503002529 56 169 0.0 14.0 0.00 0.00 0.00 69 1012.8
20260503001512 56 169 0.0 14.0 0.00 0.00 0.00 68 1012.6
20260503001012 56 169 0.0 14.0 0.00 0.00 0.00 67 1012.9
20260503000511 56 167 0.0 14.0 0.00 0.00 0.00 66 1012.7
20260502235455 57 167 0.0 14.0 0.00 0.00 0.00 65 1012.9
20260502234955 57 167 0.0 14.0 0.00 0.00 0.00 64 1012.9
20260502234454 57 167 0.0 14.0 0.00 0.00 0.00 64 1012.9
20260502233954 57 167 0.0 14.0 0.00 0.00 0.00 64 1012.7
20260502233453 57 167 0.0 14.0 0.00 0.00 0.00 63 1012.9
20260502232952 57 167 0.0 14.0 0.00 0.00 0.00 63 1013.0
20260502232452 57 167 0.0 14.0 0.00 0.00 0.00 62 1012.9
20260502231435 58 167 0.0 14.0 0.00 0.00 0.00 62 1013.1
20260502230934 57 167 0.0 14.0 0.00 0.00 0.00 62 1013.0
20260502230433 57 167 0.0 14.0 0.00 0.00 0.00 62 1013.0
20260502225417 57 168 0.0 14.0 0.00 0.00 0.00 61 1013.1
20260502224916 58 168 0.0 14.0 0.00 0.00 0.00 61 1013.4
20260502224416 57 163 0.0 14.0 0.00 0.00 0.00 60 1013.5
20260502223916 58 149 0.0 14.0 0.00 0.00 0.00 60 1013.6
20260502223415 58 174 1.0 14.0 0.00 0.00 0.00 59 1013.7
20260502222915 58 142 0.0 14.0 0.00 0.00 0.00 59 1013.4
20260502220828 58 181 0.0 14.0 0.00 0.00 0.00 57 1013.2
20260502220327 59 181 0.0 14.0 0.00 0.00 0.00 57 1013.3
20260502215827 59 181 0.0 14.0 0.00 0.00 0.00 56 1013.2
20260502214811 59 181 0.0 14.0 0.00 0.00 0.00 55 1013.3
20260502214310 59 177 1.0 14.0 0.00 0.00 0.00 55 1013.3
20260502213255 60 162 0.0 14.0 0.00 0.00 0.00 54 1013.6
20260502212755 60 153 1.0 14.0 0.00 0.00 0.00 54 1013.3
20260502212255 60 213 1.0 14.0 0.00 0.00 0.00 53 1013.5
20260502211754 60 179 0.0 14.0 0.00 0.00 0.00 53 1013.8
20260502211254 60 157 0.0 14.0 0.00 0.00 0.00 53 1013.9
20260502210753 60 175 0.0 14.0 0.00 0.00 0.00 52 1014.0
20260502210252 61 193 1.0 14.0 0.00 0.00 0.00 52 1014.1
20260502205237 61 194 1.0 14.0 0.00 0.00 0.00 51 1013.8
20260502204736 61 189 0.0 14.0 0.00 0.00 0.00 51 1013.7
20260502204235 61 200 1.0 14.0 0.00 0.00 0.00 51 1013.8
20260502202704 61 226 1.0 14.0 0.00 0.00 0.00 50 1013.6
20260502202203 61 232 0.0 14.0 0.00 0.00 0.00 49 1013.4
20260502201703 61 184 0.0 14.0 0.00 0.00 0.00 49 1013.6
20260502200647 62 181 0.0 14.0 0.00 0.00 0.00 48 1013.9
20260502200147 62 175 1.0 14.0 0.00 0.00 0.00 48 1013.9
20260502195645 62 168 1.0 14.0 0.00 0.00 0.00 48 1013.6
20260502195146 62 143 1.0 14.0 0.00 0.00 0.00 47 1013.7
20260502194645 62 148 1.0 14.0 0.00 0.00 0.00 47 1013.5
20260502194144 62 148 0.0 14.0 0.00 0.00 0.00 46 1013.6
20260502193644 62 155 0.0 14.0 0.00 0.00 0.00 46 1013.8
20260502193143 62 200 0.0 14.0 0.00 0.00 0.00 46 1014.0
20260502191057 63 166 0.0 14.0 0.00 0.00 0.00 44 1013.6
20260502190558 63 164 0.0 14.0 0.00 0.00 0.00 43 1014.0
20260502190057 64 163 0.0 14.0 0.00 0.00 0.00 43 1014.0
20260502185556 64 163 0.0 14.0 0.00 0.00 0.00 42 1014.0
20260502185056 64 163 0.0 14.0 0.00 0.00 0.00 42 1014.2
20260502184557 65 163 0.0 14.0 0.00 0.00 0.00 41 1014.2
20260502184057 65 163 0.0 14.0 0.00 0.00 0.00 40 1013.9
20260502183557 65 162 0.0 14.0 0.00 0.00 0.00 40 1013.8
20260502183056 66 161 0.0 14.0 0.00 0.00 0.00 40 1014.0
20260502182555 66 161 0.0 14.0 0.00 0.00 0.00 39 1014.1
20260502182054 66 196 0.0 14.0 0.00 0.00 0.00 39 1013.9
20260502181040 67 205 0.0 14.0 0.00 0.00 0.00 38 1014.2
20260502170520 70 197 3.0 11.0 0.00 0.00 0.00 32 1014.5
20260502163946 71 169 2.0 11.0 0.00 0.00 0.00 29 1014.1
20260502163445 71 197 3.0 11.0 0.00 0.00 0.00 29 1014.5
20260502162945 71 184 3.0 11.0 0.00 0.00 0.00 29 1014.2
20260502162444 71 191 2.0 11.0 0.00 0.00 0.00 29 1014.4
20260502160912 71 224 3.0 13.0 0.00 0.00 0.00 28 1014.1
20260502160411 71 218 4.0 13.0 0.00 0.00 0.00 28 1014.8
20260502151851 72 177 3.0 11.0 0.00 0.00 0.00 27 1015.2
20260502151351 72 183 4.0 11.0 0.00 0.00 0.00 28 1014.9
20260502150851 72 195 3.0 12.0 0.00 0.00 0.00 28 1015.1
20260502150350 73 180 4.0 13.0 0.00 0.00 0.00 27 1015.7
20260502130213 73 212 5.0 13.0 0.00 0.00 0.00 31 1016.1
20260502123712 73 213 6.0 15.0 0.00 0.00 0.00 30 1016.7
20260502123212 73 203 5.0 15.0 0.00 0.00 0.00 30 1016.6
20260502122712 73 229 6.0 15.0 0.00 0.00 0.00 31 1017.0
20260502122211 73 243 4.0 16.0 0.00 0.00 0.00 31 1016.5
20260502121710 73 220 4.0 16.0 0.00 0.00 0.00 32 1016.5
20260502121210 73 209 6.0 17.0 0.00 0.00 0.00 32 1016.8
20260502120710 73 223 7.0 17.0 0.00 0.00 0.00 32 1017.0
20260502120209 73 189 4.0 13.0 0.00 0.00 0.00 33 1017.4
20260502115708 73 204 4.0 14.0 0.00 0.00 0.00 34 1017.3
20260502115208 73 158 4.0 14.0 0.00 0.00 0.00 35 1017.3
20260502114708 73 168 5.0 12.0 0.00 0.00 0.00 34 1017.3
20260502114208 73 205 3.0 12.0 0.00 0.00 0.00 33 1017.1
20260502113152 73 149 4.0 12.0 0.00 0.00 0.00 33 1017.4
20260502112135 73 172 5.0 13.0 0.00 0.00 0.00 33 1017.6
20260502111635 73 183 5.0 13.0 0.00 0.00 0.00 34 1017.4
20260502111134 72 191 4.0 13.0 0.00 0.00 0.00 35 1017.7
20260502110634 72 167 6.0 13.0 0.00 0.00 0.00 34 1017.5
20260502105104 72 212 5.0 14.0 0.00 0.00 0.00 34 1018.0
20260502104603 72 199 5.0 15.0 0.00 0.00 0.00 34 1017.5
20260502104103 72 190 5.0 15.0 0.00 0.00 0.00 34 1018.1
20260502103047 73 172 2.0 20.0 0.00 0.00 0.00 36 1017.8
20260502102547 72 206 2.0 20.0 0.00 0.00 0.00 36 1018.0
20260502101532 72 178 3.0 11.0 0.00 0.00 0.00 37 1017.9
20260502101031 72 159 5.0 11.0 0.00 0.00 0.00 38 1018.2
20260502100530 72 167 3.0 11.0 0.00 0.00 0.00 38 1018.4
20260502091513 70 139 3.0 11.0 0.00 0.00 0.00 40 1019.0
20260502091013 69 211 3.0 11.0 0.00 0.00 0.00 41 1018.6
20260502071434 63 162 2.0 11.0 0.00 0.00 0.00 48 1019.6
20260502070933 63 145 2.0 11.0 0.00 0.00 0.00 50 1019.7
20260502070433 62 157 2.0 11.0 0.00 0.00 0.00 51 1019.7
20260502065933 62 178 1.0 11.0 0.00 0.00 0.00 51 1019.9
20260502064918 60 195 0.0 11.0 0.00 0.00 0.00 52 1020.2
20260502064417 60 166 1.0 11.0 0.00 0.00 0.00 53 1020.0
20260502063917 59 159 1.0 11.0 0.00 0.00 0.00 54 1020.3
20260502062900 58 187 1.0 11.0 0.00 0.00 0.00 56 1020.5
20260502062359 57 143 1.0 11.0 0.00 0.00 0.00 57 1020.2
20260502060842 55 97 1.0 11.0 0.00 0.00 0.00 60 1020.7
20260502060343 54 163 1.0 11.0 0.00 0.00 0.00 60 1020.7
20260502055841 54 108 1.0 11.0 0.00 0.00 0.00 61 1020.4
20260502055340 53 92 0.0 11.0 0.00 0.00 0.00 62 1020.6
20260502054840 52 92 0.0 11.0 0.00 0.00 0.00 63 1020.6
20260502054340 52 137 1.0 11.0 0.00 0.00 0.00 64 1020.7
20260502053323 50 146 0.0 11.0 0.00 0.00 0.00 69 1020.6
20260502052823 49 146 0.0 11.0 0.00 0.00 0.00 71 1020.8
20260502052323 48 146 0.0 11.0 0.00 0.00 0.00 72 1020.9
20260502051308 47 147 0.0 11.0 0.00 0.00 0.00 75 1021.1
20260502050808 46 147 1.0 11.0 0.00 0.00 0.00 77 1020.9
20260502050308 45 136 1.0 11.0 0.00 0.00 0.00 79 1021.2
20260502045808 43 146 1.0 11.0 0.00 0.00 0.00 81 1021.1
20260502045308 42 191 0.0 11.0 0.00 0.00 0.00 81 1021.4
20260502044808 41 191 0.0 11.0 0.00 0.00 0.00 80 1021.5
20260502044307 41 191 0.0 11.0 0.00 0.00 0.00 80 1021.5
20260502043807 40 191 0.0 11.0 0.00 0.00 0.00 81 1021.4
20260502043306 39 191 0.0 11.0 0.00 0.00 0.00 81 1021.7
20260502042250 39 191 0.0 11.0 0.00 0.00 0.00 82 1021.7
20260502041749 38 191 0.0 11.0 0.00 0.00 0.00 82 1021.8
20260502041249 38 191 0.0 11.0 0.00 0.00 0.00 81 1021.8
20260502040749 38 191 0.0 11.0 0.00 0.00 0.00 81 1022.0
20260502040248 38 191 0.0 11.0 0.00 0.00 0.00 81 1022.1
20260502035747 38 191 0.0 11.0 0.00 0.00 0.00 81 1022.1
20260502035246 38 191 0.0 11.0 0.00 0.00 0.00 81 1022.1
20260502034746 38 191 0.0 11.0 0.00 0.00 0.00 81 1022.1
20260502033730 38 191 0.0 11.0 0.00 0.00 0.00 80 1022.5
20260502031644 38 191 0.0 11.0 0.00 0.00 0.00 80 1022.4
20260502031144 39 191 0.0 11.0 0.00 0.00 0.00 80 1022.5
20260502030644 39 191 0.0 11.0 0.00 0.00 0.00 80 1022.6
20260502030144 39 191 0.0 11.0 0.00 0.00 0.00 79 1022.6
20260502025129 39 191 0.0 11.0 0.00 0.00 0.00 79 1022.4
20260502024628 39 191 0.0 11.0 0.00 0.00 0.00 79 1022.5
20260502024128 40 191 0.0 11.0 0.00 0.00 0.00 80 1022.7
20260502023627 40 191 0.0 11.0 0.00 0.00 0.00 80 1022.6
20260502023126 40 191 0.0 11.0 0.00 0.00 0.00 79 1022.6
20260502022626 40 191 0.0 11.0 0.00 0.00 0.00 79 1022.8
20260502022126 40 191 0.0 11.0 0.00 0.00 0.00 78 1022.9
20260502021110 40 191 0.0 11.0 0.00 0.00 0.00 77 1022.8
20260502020610 41 191 0.0 11.0 0.00 0.00 0.00 77 1022.8
20260502020110 41 191 0.0 11.0 0.00 0.00 0.00 76 1022.9
20260502015610 41 191 0.0 11.0 0.00 0.00 0.00 77 1022.9
20260502015110 41 191 0.0 11.0 0.00 0.00 0.00 77 1023.3
20260502014610 41 191 0.0 11.0 0.00 0.00 0.00 77 1023.1
20260502014109 41 191 0.0 11.0 0.00 0.00 0.00 78 1023.2
20260502013608 41 191 0.0 11.0 0.00 0.00 0.00 78 1023.3
20260502013107 41 191 0.0 11.0 0.00 0.00 0.00 77 1023.4
20260502012607 41 191 0.0 11.0 0.00 0.00 0.00 77 1023.5
20260502011551 42 191 0.0 11.0 0.00 0.00 0.00 76 1023.4
20260502011051 42 191 0.0 11.0 0.00 0.00 0.00 76 1023.5
20260502010551 42 191 0.0 11.0 0.00 0.00 0.00 76 1023.7
20260502010050 42 191 0.0 11.0 0.00 0.00 0.00 76 1023.6